Date String (YYYY-MM-DD hh:mm:ss) UTC,Instrument flags,Ambient pressure (hPa),Sample flow (lpm),Bypass flow (lpm),Sample temperature (°C),Ambient temperature (°C),ASC tube jacket temperature (°C),LED temperature (°C),Box temperature (°C),Sample RH (%),Span deviation,Mass concentration (μg/m³),Mass concentration (μg/m³),Mass concentration (μg/m³)
DateTimeUTC,F1_M11,P_M11,Q1_M11,Q2_M11,T1_M11,T2_M11,T3_M11,T4_M11,T5_M11,U1_M11,ZSPAN_M11,X0_M11,X2_M11,X1_M11
2021-10-28 23:00:00,,0831.3,5.00,0.00,27.6,26.9,00.0,36.5,29.4,11.6,0000.0,0015.66,0005.34,0004.56
2021-10-28 23:01:00,,0831.3,4.99,0.00,27.6,26.9,00.0,36.5,29.4,11.6,0000.0,0016.40,0005.38,0004.57
2021-10-28 23:02:00,,0831.4,5.00,0.00,27.6,26.9,00.0,36.5,29.4,11.7,0000.0,0016.28,0005.39,0004.59
2021-10-28 23:03:00,,0831.3,4.99,0.00,27.6,26.9,00.0,36.5,29.4,11.7,0000.0,0016.10,0005.39,0004.61
2021-10-28 23:04:00,,0831.4,5.00,0.00,27.6,26.9,00.0,36.5,29.4,11.7,0000.0,0016.33,0005.39,0004.61
2021-10-28 23:05:00,,0831.4,5.00,0.00,27.6,27.0,00.0,36.5,29.4,11.6,0000.0,0016.03,0005.42,0004.61
2021-10-28 23:06:00,,0831.4,5.00,0.00,27.6,27.0,00.0,36.5,29.4,11.7,0000.0,0016.85,0005.49,0004.63
2021-10-28 23:07:00,,0831.4,5.00,0.00,27.6,27.0,00.0,36.5,29.5,11.7,0000.0,0016.98,0005.54,0004.64
2021-10-28 23:08:00,,0831.5,5.01,0.00,27.6,27.0,00.0,36.6,29.5,11.6,0000.0,0015.80,0005.54,0004.65
2021-10-28 23:09:00,,0831.4,4.99,0.00,27.6,27.0,00.0,36.6,29.5,11.6,0000.0,0015.59,0005.58,0004.65
2021-10-28 23:10:00,,0831.4,5.00,0.00,27.6,27.0,00.0,36.6,29.5,11.6,0000.0,0016.12,0005.66,0004.68
2021-10-28 23:11:00,,0831.4,5.01,0.00,27.6,27.0,00.0,36.6,29.4,11.7,0000.0,0016.18,0005.73,0004.71
2021-10-28 23:12:00,,0831.3,5.00,0.00,27.6,27.0,00.0,36.6,29.5,11.7,0000.0,0015.90,0005.73,0004.71
2021-10-28 23:13:00,,0831.4,5.00,0.00,27.6,27.0,00.0,36.6,29.5,11.7,0000.0,0015.91,0005.74,0004.73
2021-10-28 23:14:00,,0831.4,4.99,0.00,27.7,27.0,00.0,36.6,29.5,11.7,0000.0,0016.15,0005.78,0004.75
2021-10-28 23:15:00,,0831.4,5.00,0.00,27.7,27.0,00.0,36.6,29.5,11.7,0000.0,0015.94,0005.78,0004.76
2021-10-28 23:16:00,,0831.4,5.00,0.00,27.7,27.0,00.0,36.6,29.5,11.7,0000.0,0016.22,0005.74,0004.76
2021-10-28 23:17:00,,0831.4,5.01,0.00,27.7,27.0,00.0,36.6,29.6,11.7,0000.0,0015.10,0005.69,0004.75
2021-10-28 23:18:00,,0831.4,4.99,0.00,27.7,27.1,00.0,36.6,29.6,11.6,0000.0,0014.84,0005.66,0004.75
2021-10-28 23:19:00,,0831.5,5.01,0.00,27.7,27.1,00.0,36.6,29.6,11.6,0000.0,0014.18,0005.64,0004.74
2021-10-28 23:20:00,,0831.5,5.00,0.00,27.7,27.1,00.0,36.7,29.6,11.6,0000.0,0014.31,0005.61,0004.72
2021-10-28 23:21:00,,0831.5,4.99,0.00,27.8,27.1,00.0,36.7,29.6,11.6,0000.0,0014.40,0005.54,0004.69
2021-10-28 23:22:00,,0831.5,5.00,0.00,27.8,27.2,00.0,36.7,29.6,11.6,0000.0,0015.78,0005.49,0004.66
2021-10-28 23:23:00,,0831.6,5.01,0.00,27.8,27.2,00.0,36.7,29.7,11.6,0000.0,0016.22,0005.49,0004.66
2021-10-28 23:24:00,,0831.6,4.99,0.00,27.8,27.2,00.0,36.7,29.7,11.6,0000.0,0015.74,0005.46,0004.65
2021-10-28 23:25:00,,0831.5,5.00,0.00,27.8,27.2,00.0,36.7,29.7,11.6,0000.0,0015.94,0005.42,0004.63
2021-10-28 23:26:00,,0831.6,5.00,0.00,27.8,27.2,00.0,36.7,29.7,11.6,0000.0,0016.62,0005.44,0004.63
2021-10-28 23:27:00,,0831.5,5.00,0.00,27.8,27.2,00.0,36.7,29.7,11.6,0000.0,0016.41,0005.46,0004.61
2021-10-28 23:28:00,,0831.5,4.99,0.00,27.8,27.2,00.0,36.7,29.7,11.6,0000.0,0016.91,0005.49,0004.60
2021-10-28 23:29:00,,0831.4,5.00,0.00,27.8,27.2,00.0,36.8,29.7,11.6,0000.0,0017.17,0005.52,0004.61
2021-10-28 23:30:00,,0831.4,5.00,0.00,27.9,27.2,00.0,36.8,29.7,11.6,0000.0,0017.31,0005.52,0004.60
2021-10-28 23:31:00,,0831.5,5.01,0.00,27.9,27.2,00.0,36.8,29.7,11.5,0000.0,0017.24,0005.50,0004.61
2021-10-28 23:32:00,,0831.4,4.99,0.00,27.9,27.2,00.0,36.8,29.7,11.5,0000.0,0016.92,0005.53,0004.61
2021-10-28 23:33:00,,0831.4,5.00,0.00,27.9,27.2,00.0,36.8,29.7,11.5,0000.0,0016.05,0005.57,0004.61
2021-10-28 23:34:00,,0831.4,5.02,0.00,27.9,27.2,00.0,36.8,29.7,11.5,0000.0,0015.62,0005.54,0004.60
2021-10-28 23:35:00,,0831.4,5.00,0.00,27.9,27.2,00.0,36.8,29.7,11.5,0000.0,0015.61,0005.54,0004.59
2021-10-28 23:36:00,,0831.4,5.00,0.00,27.9,27.2,00.0,36.8,29.7,11.5,0000.0,0014.62,0005.53,0004.59
2021-10-28 23:37:00,,0831.5,4.99,0.00,27.9,27.2,00.0,36.8,29.7,11.6,0000.0,0013.54,0005.54,0004.60
2021-10-28 23:38:00,,0831.5,4.99,0.00,27.9,27.2,00.0,36.8,29.7,11.6,0000.0,0013.02,0005.55,0004.63
2021-10-28 23:39:00,,0831.5,5.00,0.00,27.9,27.2,00.0,36.8,29.7,11.6,0000.0,0012.61,0005.52,0004.64
2021-10-28 23:40:00,,0831.5,5.01,0.00,27.9,27.2,00.0,36.8,29.7,11.5,0000.0,0012.15,0005.50,0004.65
2021-10-28 23:41:00,,0831.5,5.00,0.00,27.9,27.2,00.0,36.8,29.7,11.5,0000.0,0012.15,0005.55,0004.68
2021-10-28 23:42:00,,0831.5,4.99,0.00,27.9,27.2,00.0,36.8,29.8,11.5,0000.0,0011.67,0005.60,0004.70
2021-10-28 23:43:00,,0831.5,5.00,0.00,27.9,27.2,00.0,36.8,29.7,11.5,0000.0,0013.15,0005.61,0004.72
2021-10-28 23:44:00,,0831.5,5.00,0.00,27.9,27.2,00.0,36.9,29.7,11.5,0000.0,0013.92,0005.56,0004.73
2021-10-28 23:45:00,,0831.5,5.01,0.00,27.9,27.2,00.0,36.9,29.7,11.5,0000.0,0014.32,0005.56,0004.75
2021-10-28 23:46:00,,0831.5,4.99,0.00,27.9,27.2,00.0,36.9,29.7,11.5,0000.0,0015.28,0005.57,0004.77
2021-10-28 23:47:00,,0831.5,5.00,0.00,27.9,27.2,00.0,36.9,29.7,11.5,0000.0,0015.41,0005.57,0004.77
2021-10-28 23:48:00,,0831.5,4.99,0.00,27.8,27.1,00.0,36.9,29.7,11.5,0000.0,0015.83,0005.54,0004.77
2021-10-28 23:49:00,,0831.6,4.99,0.00,27.8,27.2,00.0,36.9,29.7,11.5,0000.0,0015.64,0005.50,0004.76
2021-10-28 23:50:00,,0831.5,5.00,0.00,27.9,27.1,00.0,36.9,29.7,11.5,0000.0,0016.09,0005.54,0004.77
2021-10-28 23:51:00,,0831.5,5.00,0.00,27.8,27.1,00.0,36.9,29.7,11.5,0000.0,0018.05,0005.57,0004.77
2021-10-28 23:52:00,,0831.5,5.01,0.00,27.8,27.1,00.0,36.9,29.7,11.5,0000.0,0018.27,0005.57,0004.76
2021-10-28 23:53:00,,0831.5,4.99,0.00,27.8,27.1,00.0,36.8,29.7,11.5,0000.0,0018.78,0005.55,0004.77
2021-10-28 23:54:00,,0831.5,5.00,0.00,27.9,27.2,00.0,36.8,29.7,11.5,0000.0,0018.67,0005.55,0004.78
2021-10-28 23:55:00,,0831.5,5.00,0.00,27.9,27.2,00.0,36.9,29.7,11.5,0000.0,0018.14,0005.61,0004.79
2021-10-28 23:56:00,,0831.5,5.02,0.00,27.9,27.2,00.0,36.9,29.7,11.5,0000.0,0017.85,0005.65,0004.79
2021-10-28 23:57:00,,0831.5,4.99,0.00,27.9,27.2,00.0,36.9,29.8,11.7,0000.0,0016.96,0005.65,0004.78
2021-10-28 23:58:00,,0831.5,5.00,0.00,27.9,27.2,00.0,36.9,29.7,11.7,0000.0,0016.90,0005.70,0004.78
2021-10-28 23:59:00,,0831.5,4.99,0.00,27.9,27.2,00.0,36.9,29.8,11.7,0000.0,0016.31,0005.71,0004.80
